Location: McLaughlin
(0.0000°N, 0.0000°E)
Time: 21:00:37
(UTC+00:00)

Hubble Space Telescope - Pass Details

Date: 27 June 2019
Orbit: 536 x 540 km, 28.5° (Epoch: 21 October)

Event Time Altitude Azimuth Distance (km) Brightness Sun altitude
Exits shadow 05:36:15 - 256° (WSW) 2,011 3.0 -6.1°
Reaches altitude 10° 05:37:08 10° 247° (WSW) 1,778 2.7 -5.9°
Maximum altitude 05:39:43 16° 208° (SSW) 1,437 2.5 -5.3°
Drops below altitude 10° 05:42:18 10° 169° (S) 1,780 3.3 -4.8°
Sets 05:45:16 0° 147° (SSE) 2,671 4.5 -4.1°
